Location: Stara Lesna
(49.1528°N, 20.2911°E)
Time: 22:59:55
(UTC+02:00)

USA 267 - Pass Details

Date: 21 September 2019
Orbit: 1102 x 1106 km, 123.0° (Epoch: 08 October)

Event Time Altitude Azimuth Distance (km) Brightness Sun altitude
Rises 02:56:37 0° 73° (ENE) 3,923 7.0 -31.1°
Reaches altitude 10° 02:59:12 10° 68° (ENE) 2,965 6.3 -30.8°
Maximum altitude 03:05:19 45° 358° (N) 1,468 4.1 -30.1°
Enters shadow 03:08:17 28° 306° (NW) 1,927 4.4 -29.8°
